Torna al catalogo

PRAETORIAN SDA_506

AttivoPO
NORAD 100064·PAYLOAD·🇺🇸 United States

Lanciato Jul 16, 2026 da Vandenberg Space Force Base

Loading…

Prossimi Passaggi (prossime 24 ore)

TLE

AggiornatoSource: Space-Track

Epoca: Sep 14, 2026, 23:00 UTC

1 A0064U 26163F   26257.95893365  .00000181  00000-0  14601-3 0  9993
2 A0064  81.4773 254.9692 0017125  55.1212 305.1553 13.86057504  8336

Traccia PRAETORIAN SDA_506 in tempo reale con AllMySat

Download on the App Store